Location: San Antonio de Areco
(34.2500°S, 59.4670°W)
Time: 02:37:26
(UTC-03:00)

ISS - Visible Passes

Search period start: 27 April 2015 00:00
Search period end: 07 May 2015 00:00
Orbit: 395 x 402 km, 51.6° (Epoch: 26 April)

Date Brightness Start Highest point End Pass type
(mag) Time Alt. Az. Time Alt. Az. Time Alt. Az.
27 Apr -1.2 06:00:36 17° S 06:02:02 23° SE 06:04:44 10° E visible
28 Apr 0.0 05:09:02 11° SE 05:09:02 11° SE 05:09:25 10° ESE visible
28 Apr -3.3 06:41:36 14° SW 06:44:20 69° NW 06:47:34 10° NE visible
29 Apr -2.7 05:50:05 49° SE 05:50:08 50° SE 05:53:19 10° ENE visible
30 Apr -2.1 06:31:12 22° WNW 06:32:05 25° NW 06:34:49 10° N visible
01 May -1.2 05:39:49 22° NNE 05:39:49 22° NNE 05:41:06 10° NE visible
03 May -0.3 20:21:32 10° NNW 20:21:44 11° NNW 20:21:44 11° NNW visible
04 May -1.9 19:27:43 10° N 19:30:08 24° NE 19:30:08 24° NE visible
05 May -1.0 18:35:18 10° NE 18:36:04 11° NE 18:36:59 10° ENE visible
05 May -1.6 20:08:53 10° WNW 20:10:57 33° W 20:10:57 33° W visible
06 May -3.3 19:14:20 10° NW 19:17:33 63° NE 19:19:03 28° ESE visible
